Location: Beuvrequen
(50.8014°N, 1.6652°E)
Time: 02:28:48
(UTC+00:00)

SJ-11-01 - Pass Details

Date: 16 October 2021
Orbit: 684 x 700 km, 97.9° (Epoch: 05 December)

Event Time Altitude Azimuth Distance (km) Brightness Sun altitude
Rises 17:45:53 0° 154° (SSE) 3,044 7.4 -8.2°
Reaches altitude 10° 17:48:07 10° 151° (SSE) 2,134 6.6 -8.6°
Maximum altitude 17:52:43 62° 71° (ENE) 782 4.3 -9.3°
Drops below altitude 10° 17:57:23 10° 352° (N) 2,160 6.9 -10.0°
Sets 17:59:40 0° 349° (N) 3,084 7.8 -10.4°
